When you browse on this site, cookies collect data to enhance your experience and personalize the content and advertising you see.
Visit our Privacy Policy to learn more. By continuing to use the site, you agree to this use of cookies and data.
  • In Lithuania
  • List of Countries
  • For 7 days
  • Water Temperature
  • Satellite Maps
  • Weather Map
  • Weather Widgets
  • user-avatar
    Login

    Hourly Weather Kaczowice

    Today, 21 March, Thursday

    Time Temperature Precipitation Wind Pressure Humidity
    00:00 +3°C° 0 mm 2 mps 749 mmHg 65%
    01:00 +3°C° 0 mm 2 mps 749 mmHg 67%
    02:00 +2°C° 0 mm 3 mps 749 mmHg 67%
    03:00 +2°C° 0 mm 3 mps 749 mmHg 67%
    04:00 +2°C° 0 mm 3 mps 749 mmHg 67%
    05:00 +2°C° 0 mm 3 mps 749 mmHg 67%
    06:00 +3°C° 0 mm 2 mps 749 mmHg 67%
    07:00 +4°C° 0 mm 2 mps 750 mmHg 67%
    08:00 +6°C° 0 mm 2 mps 750 mmHg 64%
    09:00 +8°C° 0 mm 2 mps 750 mmHg 61%
    10:00 +10°C° 0 mm 2 mps 750 mmHg 58%
    11:00 +12°C° 0 mm 2 mps 750 mmHg 59%
    12:00 +12°C° 0 mm 2 mps 750 mmHg 59%
    13:00 +13°C° 0 mm 2 mps 750 mmHg 59%
    14:00 +13°C° 0 mm 2 mps 749 mmHg 60%
    15:00 +14°C° 0 mm 2 mps 749 mmHg 60%
    16:00 +14°C° 0 mm 2 mps 749 mmHg 61%
    17:00 +12°C° 0 mm 2 mps 749 mmHg 66%
    18:00 +11°C° 0 mm 1 mps 749 mmHg 71%
    19:00 +10°C° 0 mm 1 mps 749 mmHg 77%
    20:00 +9°C° 0 mm 1 mps 749 mmHg 79%
    21:00 +9°C° 0 mm 1 mps 749 mmHg 81%
    22:00 +8°C° 0 mm 1 mps 749 mmHg 82%
    23:00 +8°C° 0 mm 1 mps 749 mmHg 83%

    Tomorrow, 22 March, Friday

    Time Temperature Precipitation Wind Pressure Humidity
    00:00 +8°C° 0 mm 1 mps 749 mmHg 85%
    01:00 +8°C° 0 mm 1 mps 749 mmHg 86%
    02:00 +7°C° 0 mm 1 mps 748 mmHg 86%
    03:00 +7°C° 0 mm 1 mps 748 mmHg 87%
    04:00 +7°C° 0 mm 1 mps 748 mmHg 88%
    05:00 +8°C° 0 mm 1 mps 748 mmHg 87%
    06:00 +8°C° 0 mm 1 mps 749 mmHg 86%
    07:00 +8°C° 0 mm 1 mps 749 mmHg 85%
    08:00 +10°C° 0 mm 1 mps 749 mmHg 80%
    09:00 +12°C° 0 mm 1 mps 749 mmHg 74%
    10:00 +14°C° 0 mm 1 mps 749 mmHg 69%
    11:00 +14°C° 0 mm 1 mps 748 mmHg 66%
    12:00 +15°C° 0 mm 1 mps 748 mmHg 63%
    13:00 +16°C° 0 mm 2 mps 748 mmHg 59%
    14:00 +16°C° 0 mm 1 mps 748 mmHg 59%
    15:00 +16°C° 0 mm 1 mps 747 mmHg 58%
    16:00 +18°C° 0 mm 1 mps 747 mmHg 57%
    17:00 +15°C° 0 mm 1 mps 747 mmHg 64%
    18:00 +13°C° 0 mm 1 mps 747 mmHg 71%
    19:00 +12°C° 0 mm 1 mps 747 mmHg 78%
    20:00 +11°C° 0 mm 1 mps 747 mmHg 81%
    21:00 +11°C° 0 mm 1 mps 746 mmHg 84%
    22:00 +10°C° 0 mm 1 mps 746 mmHg 86%
    23:00 +10°C° 0 mm 1 mps 746 mmHg 87%

    Day after tomorrow, 23 March, Saturday

    Time Temperature Precipitation Wind Pressure Humidity
    00:00 +10°C° 0 mm 1 mps 746 mmHg 87%
    01:00 +9°C° 0 mm 1 mps 746 mmHg 87%
    02:00 +9°C° 0 mm 1 mps 746 mmHg 87%
    03:00 +9°C° 0 mm 1 mps 745 mmHg 87%
    04:00 +9°C° 0 mm 1 mps 745 mmHg 86%
    05:00 +8°C° 0 mm 2 mps 745 mmHg 84%
    06:00 +8°C° 0 mm 2 mps 745 mmHg 82%
    07:00 +9°C° 0 mm 2 mps 744 mmHg 81%
    08:00 +12°C° 0 mm 2 mps 744 mmHg 72%
    09:00 +14°C° 0 mm 2 mps 745 mmHg 64%
    10:00 +16°C° 0 mm 2 mps 745 mmHg 55%
    11:00 +17°C° 0 mm 2 mps 744 mmHg 52%
    12:00 +18°C° 0 mm 2 mps 744 mmHg 48%
    13:00 +19°C° 0 mm 2 mps 743 mmHg 45%
    14:00 +19°C° 0 mm 2 mps 743 mmHg 45%
    15:00 +19°C° 0 mm 2 mps 743 mmHg 45%
    16:00 +19°C° 0 mm 2 mps 743 mmHg 45%
    17:00 +18°C° 0 mm 1 mps 743 mmHg 51%
    18:00 +16°C° 0 mm 1 mps 743 mmHg 56%
    19:00 +14°C° 0 mm 1 mps 743 mmHg 61%
    20:00 +14°C° 0 mm 1 mps 743 mmHg 63%
    21:00 +14°C° 0 mm 1 mps 743 mmHg 65%
    22:00 +14°C° 0 mm 2 mps 744 mmHg 66%
    23:00 +13°C° 0 mm 2 mps 744 mmHg 72%

    24 March, Sunday

    Time Temperature Precipitation Wind Pressure Humidity
    00:00 +11°C° 0 mm 3 mps 744 mmHg 79%
    01:00 +10°C° 0 mm 3 mps 744 mmHg 85%
    02:00 +9°C° 0 mm 3 mps 744 mmHg 85%
    03:00 +9°C° 0 mm 3 mps 744 mmHg 86%
    04:00 +8°C° 0 mm 3 mps 744 mmHg 87%
    05:00 +8°C° 0.1 mm 3 mps 744 mmHg 87%
    06:00 +8°C° 0.1 mm 3 mps 744 mmHg 87%
    07:00 +7°C° 0.1 mm 2 mps 744 mmHg 87%
    08:00 +8°C° 0 mm 2 mps 744 mmHg 83%
    09:00 +8°C° 0 mm 2 mps 744 mmHg 80%
    10:00 +9°C° 0 mm 2 mps 744 mmHg 76%
    11:00 +10°C° 0 mm 1 mps 743 mmHg 75%
    12:00 +11°C° 0 mm 1 mps 743 mmHg 73%
    13:00 +11°C° 0 mm 1 mps 743 mmHg 71%
    14:00 +11°C° 0 mm 1 mps 742 mmHg 72%
    15:00 +11°C° 0 mm 1 mps 741 mmHg 72%
    16:00 +11°C° 0 mm 1 mps 741 mmHg 72%
    17:00 +11°C° 0 mm 1 mps 741 mmHg 73%
    18:00 +10°C° 0 mm 1 mps 741 mmHg 74%
    19:00 +9°C° 0 mm 1 mps 740 mmHg 76%
    20:00 +9°C° 0 mm 1 mps 740 mmHg 75%
    21:00 +8°C° 0 mm 0 mps 740 mmHg 75%
    22:00 +8°C° 0 mm 0 mps 740 mmHg 75%
    23:00 +9°C° 0 mm 1 mps 739 mmHg 76%

    25 March, Monday

    Time Temperature Precipitation Wind Pressure Humidity
    00:00 +8°C° 0 mm 1 mps 739 mmHg 77%
    01:00 +8°C° 0 mm 1 mps 738 mmHg 78%
    02:00 +6°C° 0.7 mm 2 mps 738 mmHg 81%
    03:00 +5°C° 0.7 mm 2 mps 738 mmHg 84%
    04:00 +4°C° 0.7 mm 3 mps 738 mmHg 87%
    05:00 +4°C° 0 mm 3 mps 738 mmHg 87%
    06:00 +4°C° 0 mm 3 mps 738 mmHg 86%
    07:00 +4°C° 0 mm 4 mps 738 mmHg 86%
    08:00 +5°C° 0 mm 4 mps 739 mmHg 76%
    09:00 +6°C° 0 mm 5 mps 739 mmHg 67%
    10:00 +7°C° 0 mm 5 mps 739 mmHg 57%
    11:00 +7°C° 0.1 mm 5 mps 739 mmHg 58%
    12:00 +7°C° 0.1 mm 6 mps 738 mmHg 59%
    13:00 +8°C° 0.1 mm 6 mps 738 mmHg 59%
    14:00 +8°C° 0 mm 6 mps 737 mmHg 55%
    15:00 +8°C° 0 mm 7 mps 737 mmHg 51%
    16:00 +8°C° 0 mm 7 mps 736 mmHg 47%
    17:00 +6°C° 0.1 mm 7 mps 736 mmHg 53%
    18:00 +5°C° 0.1 mm 7 mps 736 mmHg 60%
    19:00 +4°C° 0.1 mm 7 mps 736 mmHg 66%
    20:00 +3°C° 0.1 mm 6 mps 736 mmHg 68%
    21:00 +2°C° 0.1 mm 6 mps 737 mmHg 69%
    22:00 +2°C° 0.1 mm 6 mps 737 mmHg 70%
    23:00 +1°C° 0 mm 6 mps 737 mmHg 70%

    26 March, Tuesday

    Time Temperature Precipitation Wind Pressure Humidity
    00:00 -1°C° 0 mm 6 mps 737 mmHg 71%
    01:00 -1°C° 0 mm 6 mps 736 mmHg 71%
    02:00 -1°C° 0 mm 7 mps 736 mmHg 71%
    03:00 -1°C° 0 mm 7 mps 736 mmHg 71%
    04:00 -2°C° 0 mm 8 mps 736 mmHg 70%
    05:00 -2°C° 0 mm 8 mps 736 mmHg 69%
    06:00 -3°C° 0 mm 9 mps 736 mmHg 67%
    07:00 -2°C° 0 mm 10 mps 736 mmHg 66%
    08:00 -2°C° 0.2 mm 10 mps 736 mmHg 63%
    09:00 -2°C° 0.2 mm 11 mps 736 mmHg 60%
    10:00 -2°C° 0.2 mm 11 mps 737 mmHg 57%
    11:00 -2°C° 0.1 mm 11 mps 737 mmHg 55%
    12:00 -1°C° 0.1 mm 11 mps 738 mmHg 53%
    13:00 -1°C° 0.1 mm 11 mps 738 mmHg 51%
    14:00 -1°C° 0 mm 11 mps 739 mmHg 51%
    15:00 0°C° 0 mm 10 mps 739 mmHg 50%
    16:00 0°C° 0 mm 10 mps 739 mmHg 50%
    17:00 -1°C° 0 mm 9 mps 740 mmHg 53%
    18:00 -1°C° 0 mm 8 mps 741 mmHg 56%
    19:00 -2°C° 0 mm 6 mps 742 mmHg 59%
    20:00 -2°C° 0 mm 6 mps 742 mmHg 60%
    21:00 -3°C° 0 mm 7 mps 742 mmHg 61%
    22:00 -3°C° 0 mm 7 mps 743 mmHg 62%
    23:00 -4°C° 0 mm 6 mps 743 mmHg 63%
    Show more